When you browse on this site, cookies collect data to enhance your experience and personalize the content and advertising you see.
Visit our Privacy Policy to learn more. By continuing to use the site, you agree to this use of cookies and data.
  • In Sweden
  • List of Countries
  • For 7 days
  • Water Temperature
  • Weather Map
  • Weather Widgets
  • user-avatar
    Login

    Hourly Weather Dori

    Today, 7 April, Tuesday

    Time Temperature Precipitation Wind Pressure Humidity
    00:00 +34°C° 0 mm 3 mps 732 mmHg 9%
    01:00 +33°C° 0 mm 3 mps 731 mmHg 9%
    02:00 +31°C° 0 mm 3 mps 731 mmHg 10%
    03:00 +29°C° 0 mm 3 mps 730 mmHg 10%
    04:00 +29°C° 0 mm 3 mps 731 mmHg 10%
    05:00 +28°C° 0 mm 3 mps 731 mmHg 10%
    06:00 +28°C° 0 mm 3 mps 731 mmHg 10%
    07:00 +30°C° 0 mm 2 mps 732 mmHg 9%
    08:00 +34°C° 0 mm 2 mps 733 mmHg 7%
    09:00 +37°C° 0 mm 2 mps 734 mmHg 6%
    10:00 +39°C° 0 mm 2 mps 733 mmHg 5%
    11:00 +40°C° 0 mm 1 mps 733 mmHg 5%
    12:00 +42°C° 0 mm 1 mps 732 mmHg 4%
    13:00 +43°C° 0 mm 1 mps 732 mmHg 4%
    14:00 +45°C° 0 mm 2 mps 731 mmHg 4%
    15:00 +45°C° 0 mm 2 mps 730 mmHg 4%
    16:00 +42°C° 0 mm 1 mps 730 mmHg 5%
    17:00 +39°C° 0 mm 1 mps 730 mmHg 6%
    18:00 +36°C° 0 mm 1 mps 730 mmHg 7%
    19:00 +35°C° 0 mm 1 mps 730 mmHg 7%
    20:00 +34°C° 0 mm 1 mps 731 mmHg 7%
    21:00 +33°C° 0 mm 1 mps 731 mmHg 8%
    22:00 +34°C° 0 mm 2 mps 731 mmHg 8%
    23:00 +35°C° 0 mm 3 mps 731 mmHg 7%

    Tomorrow, 8 April, Wednesday

    Time Temperature Precipitation Wind Pressure Humidity
    00:00 +35°C° 0 mm 4 mps 731 mmHg 7%
    01:00 +34°C° 0 mm 4 mps 731 mmHg 7%
    02:00 +33°C° 0 mm 4 mps 731 mmHg 8%
    03:00 +33°C° 0 mm 4 mps 731 mmHg 8%
    04:00 +30°C° 0 mm 3 mps 731 mmHg 8%
    05:00 +29°C° 0 mm 3 mps 731 mmHg 8%
    06:00 +28°C° 0 mm 2 mps 731 mmHg 9%
    07:00 +31°C° 0 mm 2 mps 732 mmHg 8%
    08:00 +35°C° 0 mm 3 mps 732 mmHg 6%
    09:00 +37°C° 0 mm 3 mps 733 mmHg 5%
    10:00 +40°C° 0 mm 3 mps 732 mmHg 5%
    11:00 +43°C° 0 mm 3 mps 732 mmHg 4%
    12:00 +45°C° 0 mm 3 mps 731 mmHg 4%
    13:00 +45°C° 0 mm 3 mps 731 mmHg 4%
    14:00 +46°C° 0 mm 2 mps 730 mmHg 4%
    15:00 +46°C° 0 mm 2 mps 730 mmHg 4%
    16:00 +43°C° 0 mm 1 mps 729 mmHg 5%
    17:00 +41°C° 0 mm 1 mps 729 mmHg 5%
    18:00 +39°C° 0 mm 1 mps 729 mmHg 6%
    19:00 +38°C° 0 mm 2 mps 729 mmHg 7%
    20:00 +36°C° 0 mm 2 mps 730 mmHg 7%
    21:00 +35°C° 0 mm 3 mps 730 mmHg 8%
    22:00 +34°C° 0 mm 3 mps 730 mmHg 8%
    23:00 +33°C° 0 mm 3 mps 730 mmHg 8%

    Day after tomorrow, 9 April, Thursday

    Time Temperature Precipitation Wind Pressure Humidity
    00:00 +33°C° 0 mm 3 mps 730 mmHg 9%
    01:00 +31°C° 0 mm 3 mps 730 mmHg 9%
    02:00 +29°C° 0 mm 2 mps 730 mmHg 9%
    03:00 +28°C° 0 mm 2 mps 730 mmHg 9%
    04:00 +28°C° 0 mm 2 mps 730 mmHg 14%
    05:00 +28°C° 0 mm 3 mps 730 mmHg 19%
    06:00 +28°C° 0 mm 4 mps 731 mmHg 24%
    07:00 +32°C° 0 mm 4 mps 732 mmHg 25%
    08:00 +35°C° 0 mm 5 mps 732 mmHg 27%
    09:00 +38°C° 0 mm 6 mps 733 mmHg 29%
    10:00 +40°C° 0 mm 4 mps 733 mmHg 23%
    11:00 +41°C° 0 mm 2 mps 732 mmHg 16%
    12:00 +43°C° 0 mm 1 mps 732 mmHg 9%
    13:00 +43°C° 0 mm 1 mps 731 mmHg 9%
    14:00 +44°C° 0 mm 1 mps 730 mmHg 8%
    15:00 +44°C° 0 mm 1 mps 729 mmHg 7%
    16:00 +42°C° 0 mm 1 mps 729 mmHg 7%
    17:00 +41°C° 0 mm 1 mps 729 mmHg 8%
    18:00 +39°C° 0 mm 2 mps 729 mmHg 9%
    19:00 +38°C° 0 mm 2 mps 730 mmHg 8%
    20:00 +37°C° 0 mm 2 mps 730 mmHg 7%
    21:00 +36°C° 0 mm 3 mps 730 mmHg 7%
    22:00 +35°C° 0 mm 3 mps 730 mmHg 12%
    23:00 +34°C° 0 mm 3 mps 731 mmHg 17%

    10 April, Friday

    Time Temperature Precipitation Wind Pressure Humidity
    00:00 +34°C° 0 mm 3 mps 731 mmHg 22%
    01:00 +33°C° 0 mm 3 mps 731 mmHg 25%
    02:00 +33°C° 0 mm 4 mps 730 mmHg 28%
    03:00 +33°C° 0 mm 5 mps 730 mmHg 32%
    04:00 +32°C° 0 mm 4 mps 731 mmHg 33%
    05:00 +30°C° 0 mm 4 mps 731 mmHg 34%
    06:00 +29°C° 0 mm 3 mps 731 mmHg 36%
    07:00 +32°C° 0 mm 4 mps 732 mmHg 30%
    08:00 +35°C° 0 mm 4 mps 732 mmHg 25%
    09:00 +39°C° 0 mm 5 mps 733 mmHg 20%
    10:00 +41°C° 0 mm 4 mps 733 mmHg 16%
    11:00 +42°C° 0 mm 3 mps 732 mmHg 13%
    12:00 +43°C° 0 mm 2 mps 732 mmHg 10%
    13:00 +43°C° 0 mm 1 mps 731 mmHg 9%
    14:00 +44°C° 0 mm 1 mps 731 mmHg 8%
    15:00 +44°C° 0 mm 1 mps 730 mmHg 7%
    16:00 +43°C° 0 mm 1 mps 730 mmHg 8%
    17:00 +41°C° 0 mm 2 mps 730 mmHg 8%
    18:00 +40°C° 0 mm 2 mps 730 mmHg 9%
    19:00 +38°C° 0 mm 3 mps 730 mmHg 16%
    20:00 +36°C° 0 mm 3 mps 731 mmHg 23%
    21:00 +34°C° 0 mm 4 mps 731 mmHg 30%
    22:00 +34°C° 0 mm 4 mps 731 mmHg 33%
    23:00 +33°C° 0 mm 4 mps 731 mmHg 37%

    11 April, Saturday

    Time Temperature Precipitation Wind Pressure Humidity
    00:00 +33°C° 0 mm 5 mps 731 mmHg 40%
    01:00 +32°C° 0 mm 4 mps 731 mmHg 43%
    02:00 +32°C° 0 mm 4 mps 731 mmHg 46%
    03:00 +30°C° 0 mm 3 mps 731 mmHg 49%
    04:00 +30°C° 0 mm 3 mps 731 mmHg 50%
    05:00 +29°C° 0 mm 4 mps 731 mmHg 51%
    06:00 +29°C° 0 mm 4 mps 732 mmHg 52%
    07:00 +33°C° 0 mm 5 mps 732 mmHg 44%
    08:00 +36°C° 0 mm 6 mps 733 mmHg 35%
    09:00 +39°C° 0 mm 7 mps 734 mmHg 27%
    10:00 +41°C° 0 mm 6 mps 733 mmHg 24%
    11:00 +44°C° 0 mm 6 mps 733 mmHg 20%
    12:00 +45°C° 0 mm 5 mps 733 mmHg 17%
    13:00 +45°C° 0 mm 5 mps 732 mmHg 17%
    14:00 +44°C° 0 mm 4 mps 731 mmHg 16%
    15:00 +44°C° 0 mm 4 mps 730 mmHg 16%
    16:00 +43°C° 0.1 mm 4 mps 730 mmHg 18%
    17:00 +40°C° 0.1 mm 3 mps 730 mmHg 20%
    18:00 +39°C° 0.1 mm 3 mps 730 mmHg 22%
    19:00 +37°C° 0 mm 3 mps 731 mmHg 24%
    20:00 +36°C° 0 mm 2 mps 731 mmHg 26%
    21:00 +34°C° 0 mm 1 mps 732 mmHg 28%
    22:00 +33°C° 0 mm 1 mps 732 mmHg 29%
    23:00 +33°C° 0 mm 1 mps 732 mmHg 30%

    12 April, Sunday

    Time Temperature Precipitation Wind Pressure Humidity
    00:00 +32°C° 0 mm 1 mps 732 mmHg 30%
    01:00 +31°C° 0 mm 2 mps 732 mmHg 30%
    02:00 +31°C° 0 mm 2 mps 731 mmHg 30%
    03:00 +31°C° 0 mm 3 mps 731 mmHg 30%
    04:00 +31°C° 0 mm 3 mps 731 mmHg 33%
    05:00 +31°C° 0 mm 3 mps 732 mmHg 36%
    06:00 +32°C° 0 mm 4 mps 732 mmHg 38%
    07:00 +34°C° 0 mm 4 mps 732 mmHg 35%
    08:00 +36°C° 0 mm 4 mps 733 mmHg 31%
    09:00 +39°C° 0 mm 5 mps 733 mmHg 28%
    10:00 +40°C° 0 mm 3 mps 733 mmHg 24%
    11:00 +41°C° 0 mm 2 mps 733 mmHg 21%
    12:00 +40°C° 0 mm 0 mps 732 mmHg 17%
    13:00 +43°C° 0 mm 1 mps 731 mmHg 16%
    14:00 +43°C° 0 mm 2 mps 731 mmHg 15%
    15:00 +45°C° 0 mm 3 mps 730 mmHg 14%
    16:00 +44°C° 0 mm 3 mps 730 mmHg 14%
    17:00 +43°C° 0 mm 3 mps 730 mmHg 14%
    18:00 +41°C° 0 mm 2 mps 730 mmHg 15%
    19:00 +40°C° 0 mm 2 mps 730 mmHg 16%
    20:00 +39°C° 0 mm 3 mps 731 mmHg 17%
    21:00 +38°C° 0 mm 3 mps 731 mmHg 17%
    22:00 +37°C° 0 mm 2 mps 731 mmHg 20%
    23:00 +35°C° 0 mm 2 mps 731 mmHg 22%
    Show more